User: anonymous   Login
Location: Franzen
(48.6167°N, 15.3833°E)
Time: 23:28:22
(UTC+00:00)
Language:

Gbstr 26 Del rocket - Orbit

View from above orbital plane
View from above orbital plane
View from above satellite
View from above satellite

Ground track
Ground track

The orbit data is extracted from the following two-line orbital elements,

1 25876U 99041E   21169.40636161 -.00000143  00000-0  15921-4 0  9998
2 25876  51.7669 305.5348 0530787 331.5703  25.7184 14.04577338120051
Epoch (UTC): 18 June 2021 09:45:09
Eccentricity: 0.0530787
inclination: 51.7669°
perigee height: 493 km
apogee height: 1263 km
right ascension of ascending node: 305.5348°
argument of perigee: 331.5703°
revolutions per day: 14.04577338
mean anomaly at epoch: 25.7184°
orbit number at epoch: 12005

The dashed part of the orbit path shows where the satellite is in the earth's shadow,  

DLR